owner,sensor,date,latitude,longitude,sea_surface_height_above_sea_level,qcFlag 
TCOON,ioos:station:TCOON:003:1,2016-03-01T00:30:00Z,26.8015,-97.4706,1.285,1111122 
TCOON,ioos:station:TCOON:003:1,2016-03-01T02:18:00Z,26.8015,-97.4706,1.281,1111122 
TCOON,ioos:station:TCOON:003:1,2016-03-01T03:18:00Z,26.8015,-97.4706,1.251,1111122 
TCOON,ioos:station:TCOON:003:1,2016-03-01T04:18:00Z,26.8015,-97.4706,1.24,1111122 
TCOON,ioos:station:TCOON:003:1,2016-03-01T09:18:00Z,26.8015,-97.4706,1.219,1111122 
TCOON,ioos:station:TCOON:003:1,2016-03-01T10:18:00Z,26.8015,-97.4706,1.22,1111122 
TCOON,ioos:station:TCOON:003:1,2016-03-01T11:18:00Z,26.8015,-97.4706,1.209,1111122 
TCOON,ioos:station:TCOON:003:1,2016-03-01T12:18:00Z,26.8015,-97.4706,1.157,1111122 
TCOON,ioos:station:TCOON:003:1,2016-03-01T13:18:00Z,26.8015,-97.4706,1.112,1111122 
TCOON,ioos:station:TCOON:003:1,2016-03-01T15:36:00Z,26.8015,-97.4706,1.125,1111122 
TCOON,ioos:station:TCOON:003:1,2016-03-01T16:18:00Z,26.8015,-97.4706,1.129,1111122 
TCOON,ioos:station:TCOON:003:1,2016-03-01T17:18:00Z,26.8015,-97.4706,1.131,1111122 
TCOON,ioos:station:TCOON:003:1,2016-03-01T18:18:00Z,26.8015,-97.4706,1.11,1111122 
TCOON,ioos:station:TCOON:003:1,2016-03-01T19:36:00Z,26.8015,-97.4706,1.104,1111122 
TCOON,ioos:station:TCOON:003:1,2016-03-01T20:24:00Z,26.8015,-97.4706,1.118,1111122 
TCOON,ioos:station:TCOON:003:1,2016-03-01T21:24:00Z,26.8015,-97.4706,1.14,1111122 
TCOON,ioos:station:TCOON:003:1,2016-03-01T22:18:00Z,26.8015,-97.4706,1.157,1111122 
TCOON,ioos:station:TCOON:003:1,2016-03-01T23:18:00Z,26.8015,-97.4706,1.188,1111122 
TCOON,ioos:station:TCOON:003:1,2016-03-02T00:18:00Z,26.8015,-97.4706,1.223,1111122 
TCOON,ioos:station:TCOON:003:1,2016-03-02T01:18:00Z,26.8015,-97.4706,1.243,1111122 
TCOON,ioos:station:TCOON:003:1,2016-03-02T02:18:00Z,26.8015,-97.4706,1.235,1111122 
TCOON,ioos:station:TCOON:003:1,2016-03-02T03:24:00Z,26.8015,-97.4706,1.217,1111122 
TCOON,ioos:station:TCOON:003:1,2016-03-02T04:24:00Z,26.8015,-97.4706,1.196,1111122 
TCOON,ioos:station:TCOON:003:1,2016-03-02T05:54:00Z,26.8015,-97.4706,1.16,1111122 
TCOON,ioos:station:TCOON:003:1,2016-03-02T06:24:00Z,26.8015,-97.4706,1.15,1111122 
TCOON,ioos:station:TCOON:003:1,2016-03-02T07:24:00Z,26.8015,-97.4706,1.128,1111122 
TCOON,ioos:station:TCOON:003:1,2016-03-02T08:24:00Z,26.8015,-97.4706,1.112,1111122 
TCOON,ioos:station:TCOON:003:1,2016-03-02T09:42:00Z,26.8015,-97.4706,1.099,1111122 
TCOON,ioos:station:TCOON:003:1,2016-03-02T10:18:00Z,26.8015,-97.4706,1.1,1111122 
TCOON,ioos:station:TCOON:003:1,2016-03-02T11:18:00Z,26.8015,-97.4706,1.101,1111122 
TCOON,ioos:station:TCOON:003:1,2016-03-02T12:18:00Z,26.8015,-97.4706,1.101,1111122 
TCOON,ioos:station:TCOON:003:1,2016-03-02T13:18:00Z,26.8015,-97.4706,1.1,1111122 
TCOON,ioos:station:TCOON:003:1,2016-03-02T14:18:00Z,26.8015,-97.4706,1.096,1111122 
TCOON,ioos:station:TCOON:003:1,2016-03-02T15:18:00Z,26.8015,-97.4706,1.096,1111122 
TCOON,ioos:station:TCOON:003:1,2016-03-02T16:18:00Z,26.8015,-97.4706,1.074,1111122 
TCOON,ioos:station:TCOON:003:1,2016-03-02T17:18:00Z,26.8015,-97.4706,1.083,1111122 
TCOON,ioos:station:TCOON:003:1,2016-03-02T18:18:00Z,26.8015,-97.4706,1.091,1111122 
TCOON,ioos:station:TCOON:003:1,2016-03-02T19:18:00Z,26.8015,-97.4706,1.109,1111122 
TCOON,ioos:station:TCOON:003:1,2016-03-02T20:18:00Z,26.8015,-97.4706,1.131,1111122 
TCOON,ioos:station:TCOON:003:1,2016-03-02T21:18:00Z,26.8015,-97.4706,1.142,1111122 
TCOON,ioos:station:TCOON:003:1,2016-03-02T22:18:00Z,26.8015,-97.4706,1.158,1111122 
TCOON,ioos:station:TCOON:003:1,2016-03-02T23:18:00Z,26.8015,-97.4706,1.178,1111122 
TCOON,ioos:station:TCOON:003:1,2016-03-03T00:18:00Z,26.8015,-97.4706,1.198,1111122 
TCOON,ioos:station:TCOON:003:1,2016-03-03T01:18:00Z,26.8015,-97.4706,1.218,1111122 
TCOON,ioos:station:TCOON:003:1,2016-03-03T02:18:00Z,26.8015,-97.4706,1.221,1111122 
TCOON,ioos:station:TCOON:003:1,2016-03-03T03:18:00Z,26.8015,-97.4706,1.225,1111122 
TCOON,ioos:station:TCOON:003:1,2016-03-03T04:18:00Z,26.8015,-97.4706,1.228,1111122 
TCOON,ioos:station:TCOON:003:1,2016-03-03T05:18:00Z,26.8015,-97.4706,1.226,1111122 
TCOON,ioos:station:TCOON:003:1,2016-03-03T06:18:00Z,26.8015,-97.4706,1.223,1111122 
TCOON,ioos:station:TCOON:003:1,2016-03-03T07:18:00Z,26.8015,-97.4706,1.233,1111122 
TCOON,ioos:station:TCOON:003:1,2016-03-03T08:18:00Z,26.8015,-97.4706,1.221,1111122 
TCOON,ioos:station:TCOON:003:1,2016-03-03T09:18:00Z,26.8015,-97.4706,1.23,1111122 
TCOON,ioos:station:TCOON:003:1,2016-03-03T10:18:00Z,26.8015,-97.4706,1.21,1111122 
TCOON,ioos:station:TCOON:003:1,2016-03-03T11:18:00Z,26.8015,-97.4706,1.204,1111122 
TCOON,ioos:station:TCOON:003:1,2016-03-03T12:18:00Z,26.8015,-97.4706,1.2,1111122 
TCOON,ioos:station:TCOON:003:1,2016-03-03T13:18:00Z,26.8015,-97.4706,1.193,1111122 
TCOON,ioos:station:TCOON:003:1,2016-03-03T14:18:00Z,26.8015,-97.4706,1.19,1111122 
TCOON,ioos:station:TCOON:003:1,2016-03-03T15:18:00Z,26.8015,-97.4706,1.195,1111122 
TCOON,ioos:station:TCOON:003:1,2016-03-03T16:18:00Z,26.8015,-97.4706,1.191,1111122 
TCOON,ioos:station:TCOON:003:1,2016-03-03T17:18:00Z,26.8015,-97.4706,1.179,1111122 
TCOON,ioos:station:TCOON:003:1,2016-03-03T18:18:00Z,26.8015,-97.4706,1.163,1111122 
TCOON,ioos:station:TCOON:003:1,2016-03-03T19:24:00Z,26.8015,-97.4706,1.155,1111122 
TCOON,ioos:station:TCOON:003:1,2016-03-03T20:24:00Z,26.8015,-97.4706,1.156,1111122 
TCOON,ioos:station:TCOON:003:1,2016-03-03T21:18:00Z,26.8015,-97.4706,1.163,1111122 
TCOON,ioos:station:TCOON:003:1,2016-03-03T22:18:00Z,26.8015,-97.4706,1.191,1111122 
TCOON,ioos:station:TCOON:003:1,2016-03-03T23:18:00Z,26.8015,-97.4706,1.231,1111122 
TCOON,ioos:station:TCOON:003:1,2016-03-04T00:18:00Z,26.8015,-97.4706,1.237,1111122 
TCOON,ioos:station:TCOON:003:1,2016-03-04T01:18:00Z,26.8015,-97.4706,1.214,1111122 
TCOON,ioos:station:TCOON:003:1,2016-03-04T02:18:00Z,26.8015,-97.4706,1.179,1111122 
TCOON,ioos:station:TCOON:003:1,2016-03-04T03:18:00Z,26.8015,-97.4706,1.169,1111122 
TCOON,ioos:station:TCOON:003:1,2016-03-04T04:18:00Z,26.8015,-97.4706,1.173,1111122 
TCOON,ioos:station:TCOON:003:1,2016-03-04T05:18:00Z,26.8015,-97.4706,1.176,1111122 
TCOON,ioos:station:TCOON:003:1,2016-03-04T06:18:00Z,26.8015,-97.4706,1.177,1111122 
TCOON,ioos:station:TCOON:003:1,2016-03-04T07:18:00Z,26.8015,-97.4706,1.166,1111122 
TCOON,ioos:station:TCOON:003:1,2016-03-04T08:18:00Z,26.8015,-97.4706,1.145,1111122 
TCOON,ioos:station:TCOON:003:1,2016-03-04T09:36:00Z,26.8015,-97.4706,1.115,1111122 
TCOON,ioos:station:TCOON:003:1,2016-03-04T10:18:00Z,26.8015,-97.4706,1.106,1111122 
TCOON,ioos:station:TCOON:003:1,2016-03-04T11:18:00Z,26.8015,-97.4706,1.09,1111122 
TCOON,ioos:station:TCOON:003:1,2016-03-04T12:18:00Z,26.8015,-97.4706,1.082,1111122 
TCOON,ioos:station:TCOON:003:1,2016-03-04T13:18:00Z,26.8015,-97.4706,1.08,1111122 
TCOON,ioos:station:TCOON:003:1,2016-03-04T14:18:00Z,26.8015,-97.4706,1.087,1111122 
TCOON,ioos:station:TCOON:003:1,2016-03-04T15:18:00Z,26.8015,-97.4706,1.082,1111122 
TCOON,ioos:station:TCOON:003:1,2016-03-04T16:18:00Z,26.8015,-97.4706,1.094,1111122 
TCOON,ioos:station:TCOON:003:1,2016-03-04T17:18:00Z,26.8015,-97.4706,1.109,1111122 
TCOON,ioos:station:TCOON:003:1,2016-03-04T18:18:00Z,26.8015,-97.4706,1.123,1111122 
TCOON,ioos:station:TCOON:003:1,2016-03-04T19:18:00Z,26.8015,-97.4706,1.12,1111122 
TCOON,ioos:station:TCOON:003:1,2016-03-04T20:18:00Z,26.8015,-97.4706,1.139,1111122 
TCOON,ioos:station:TCOON:003:1,2016-03-04T21:18:00Z,26.8015,-97.4706,1.15,1111122 
TCOON,ioos:station:TCOON:003:1,2016-03-04T22:18:00Z,26.8015,-97.4706,1.154,1111122 
TCOON,ioos:station:TCOON:003:1,2016-03-04T23:18:00Z,26.8015,-97.4706,1.166,1111122 
TCOON,ioos:station:TCOON:003:1,2016-03-05T00:18:00Z,26.8015,-97.4706,1.178,1111122 
TCOON,ioos:station:TCOON:003:1,2016-03-05T01:18:00Z,26.8015,-97.4706,1.179,1111122 
TCOON,ioos:station:TCOON:003:1,2016-03-05T02:18:00Z,26.8015,-97.4706,1.172,1111122 
TCOON,ioos:station:TCOON:003:1,2016-03-05T03:18:00Z,26.8015,-97.4706,1.173,1111122 
TCOON,ioos:station:TCOON:003:1,2016-03-05T04:18:00Z,26.8015,-97.4706,1.171,1111122 
TCOON,ioos:station:TCOON:003:1,2016-03-05T05:18:00Z,26.8015,-97.4706,1.189,1111122 
TCOON,ioos:station:TCOON:003:1,2016-03-05T06:18:00Z,26.8015,-97.4706,1.201,1111122 
TCOON,ioos:station:TCOON:003:1,2016-03-05T07:18:00Z,26.8015,-97.4706,1.21,1111122 
TCOON,ioos:station:TCOON:003:1,2016-03-05T08:18:00Z,26.8015,-97.4706,1.232,1111122 
TCOON,ioos:station:TCOON:003:1,2016-03-05T09:30:00Z,26.8015,-97.4706,1.216,1111122 
TCOON,ioos:station:TCOON:003:1,2016-03-05T10:18:00Z,26.8015,-97.4706,1.202,1111122 
TCOON,ioos:station:TCOON:003:1,2016-03-05T11:18:00Z,26.8015,-97.4706,1.18,1111122 
TCOON,ioos:station:TCOON:003:1,2016-03-05T12:18:00Z,26.8015,-97.4706,1.169,1111122 
TCOON,ioos:station:TCOON:003:1,2016-03-05T13:18:00Z,26.8015,-97.4706,1.162,1111122 
TCOON,ioos:station:TCOON:003:1,2016-03-05T14:18:00Z,26.8015,-97.4706,1.158,1111122 
TCOON,ioos:station:TCOON:003:1,2016-03-05T15:18:00Z,26.8015,-97.4706,1.17,1111122 
TCOON,ioos:station:TCOON:003:1,2016-03-05T16:18:00Z,26.8015,-97.4706,1.167,1111122 
TCOON,ioos:station:TCOON:003:1,2016-03-05T17:18:00Z,26.8015,-97.4706,1.177,1111122 
TCOON,ioos:station:TCOON:003:1,2016-03-05T18:18:00Z,26.8015,-97.4706,1.178,1111122 
TCOON,ioos:station:TCOON:003:1,2016-03-05T19:18:00Z,26.8015,-97.4706,1.176,1111122 
TCOON,ioos:station:TCOON:003:1,2016-03-05T20:18:00Z,26.8015,-97.4706,1.186,1111122 
TCOON,ioos:station:TCOON:003:1,2016-03-05T21:18:00Z,26.8015,-97.4706,1.206,1111122 
TCOON,ioos:station:TCOON:003:1,2016-03-05T22:18:00Z,26.8015,-97.4706,1.224,1111122 
TCOON,ioos:station:TCOON:003:1,2016-03-05T23:18:00Z,26.8015,-97.4706,1.218,1111122 
TCOON,ioos:station:TCOON:003:1,2016-03-06T00:24:00Z,26.8015,-97.4706,1.219,1111122 
TCOON,ioos:station:TCOON:003:1,2016-03-06T01:18:00Z,26.8015,-97.4706,1.221,1111122 
TCOON,ioos:station:TCOON:003:1,2016-03-06T02:18:00Z,26.8015,-97.4706,1.228,1111122 
TCOON,ioos:station:TCOON:003:1,2016-03-06T03:18:00Z,26.8015,-97.4706,1.235,1111122 
TCOON,ioos:station:TCOON:003:1,2016-03-06T04:18:00Z,26.8015,-97.4706,1.237,1111122 
TCOON,ioos:station:TCOON:003:1,2016-03-06T05:18:00Z,26.8015,-97.4706,1.236,1111122 
TCOON,ioos:station:TCOON:003:1,2016-03-06T06:18:00Z,26.8015,-97.4706,1.227,1111122 
TCOON,ioos:station:TCOON:003:1,2016-03-06T07:18:00Z,26.8015,-97.4706,1.226,1111122 
TCOON,ioos:station:TCOON:003:1,2016-03-06T08:18:00Z,26.8015,-97.4706,1.236,1111122 
TCOON,ioos:station:TCOON:003:1,2016-03-06T09:36:00Z,26.8015,-97.4706,1.242,1111122 
TCOON,ioos:station:TCOON:003:1,2016-03-06T10:18:00Z,26.8015,-97.4706,1.246,1111122 
TCOON,ioos:station:TCOON:003:1,2016-03-06T11:18:00Z,26.8015,-97.4706,1.247,1111122 
TCOON,ioos:station:TCOON:003:1,2016-03-06T12:18:00Z,26.8015,-97.4706,1.238,1111122 
TCOON,ioos:station:TCOON:003:1,2016-03-06T13:18:00Z,26.8015,-97.4706,1.228,1111122 
TCOON,ioos:station:TCOON:003:1,2016-03-06T14:18:00Z,26.8015,-97.4706,1.224,1111122 
TCOON,ioos:station:TCOON:003:1,2016-03-06T15:18:00Z,26.8015,-97.4706,1.224,1111122 
TCOON,ioos:station:TCOON:003:1,2016-03-06T16:18:00Z,26.8015,-97.4706,1.257,1111122 
TCOON,ioos:station:TCOON:003:1,2016-03-06T17:18:00Z,26.8015,-97.4706,1.288,1111122 
TCOON,ioos:station:TCOON:003:1,2016-03-06T18:18:00Z,26.8015,-97.4706,1.318,1111122 
TCOON,ioos:station:TCOON:003:1,2016-03-06T19:18:00Z,26.8015,-97.4706,1.324,1111122 
TCOON,ioos:station:TCOON:003:1,2016-03-06T20:18:00Z,26.8015,-97.4706,1.339,1111122 
TCOON,ioos:station:TCOON:003:1,2016-03-06T21:18:00Z,26.8015,-97.4706,1.37,1111122 
TCOON,ioos:station:TCOON:003:1,2016-03-06T22:18:00Z,26.8015,-97.4706,1.39,1111122 
TCOON,ioos:station:TCOON:003:1,2016-03-06T23:18:00Z,26.8015,-97.4706,1.405,1111122 
TCOON,ioos:station:TCOON:003:1,2016-03-07T00:18:00Z,26.8015,-97.4706,1.413,1111122 
TCOON,ioos:station:TCOON:003:1,2016-03-07T01:18:00Z,26.8015,-97.4706,1.422,1111122 
TCOON,ioos:station:TCOON:003:1,2016-03-07T02:18:00Z,26.8015,-97.4706,1.423,1111122 
TCOON,ioos:station:TCOON:003:1,2016-03-07T03:18:00Z,26.8015,-97.4706,1.42,1111122 
TCOON,ioos:station:TCOON:003:1,2016-03-07T04:18:00Z,26.8015,-97.4706,1.431,1111122 
TCOON,ioos:station:TCOON:003:1,2016-03-07T05:18:00Z,26.8015,-97.4706,1.444,1111122 
TCOON,ioos:station:TCOON:003:1,2016-03-07T06:18:00Z,26.8015,-97.4706,1.436,1111122 
TCOON,ioos:station:TCOON:003:1,2016-03-07T07:18:00Z,26.8015,-97.4706,1.425,1111122 
TCOON,ioos:station:TCOON:003:1,2016-03-07T08:18:00Z,26.8015,-97.4706,1.415,1111122 
TCOON,ioos:station:TCOON:003:1,2016-03-07T09:42:00Z,26.8015,-97.4706,1.428,1111122 
TCOON,ioos:station:TCOON:003:1,2016-03-07T10:18:00Z,26.8015,-97.4706,1.436,1111122 
TCOON,ioos:station:TCOON:003:1,2016-03-07T11:18:00Z,26.8015,-97.4706,1.458,1111122 
TCOON,ioos:station:TCOON:003:1,2016-03-07T12:42:00Z,26.8015,-97.4706,1.46,1111122 
TCOON,ioos:station:TCOON:003:1,2016-03-07T13:24:00Z,26.8015,-97.4706,1.448,1111122 
TCOON,ioos:station:TCOON:003:1,2016-03-07T14:24:00Z,26.8015,-97.4706,1.444,1111122 
TCOON,ioos:station:TCOON:003:1,2016-03-07T15:24:00Z,26.8015,-97.4706,1.466,1111122 
TCOON,ioos:station:TCOON:003:1,2016-03-07T16:18:00Z,26.8015,-97.4706,1.506,1111122 
TCOON,ioos:station:TCOON:003:1,2016-03-07T17:24:00Z,26.8015,-97.4706,1.54,1111122 
TCOON,ioos:station:TCOON:003:1,2016-03-07T18:36:00Z,26.8015,-97.4706,1.58,1111122 
TCOON,ioos:station:TCOON:003:1,2016-03-07T19:18:00Z,26.8015,-97.4706,1.6,1111122 
TCOON,ioos:station:TCOON:003:1,2016-03-07T20:24:00Z,26.8015,-97.4706,1.609,1111122 
TCOON,ioos:station:TCOON:003:1,2016-03-07T21:24:00Z,26.8015,-97.4706,1.612,1111122 
TCOON,ioos:station:TCOON:003:1,2016-03-08T10:30:00Z,26.8015,-97.4706,1.503,1111122 
TCOON,ioos:station:TCOON:003:1,2016-03-08T11:24:00Z,26.8015,-97.4706,1.503,1111122 
TCOON,ioos:station:TCOON:003:1,2016-03-08T12:18:00Z,26.8015,-97.4706,1.48,1111122 
TCOON,ioos:station:TCOON:003:1,2016-03-08T13:18:00Z,26.8015,-97.4706,1.449,1111122 
TCOON,ioos:station:TCOON:003:1,2016-03-08T14:18:00Z,26.8015,-97.4706,1.439,1111122 
TCOON,ioos:station:TCOON:003:1,2016-03-08T15:18:00Z,26.8015,-97.4706,1.431,1111122 
TCOON,ioos:station:TCOON:003:1,2016-03-08T16:18:00Z,26.8015,-97.4706,1.427,1111122 
TCOON,ioos:station:TCOON:003:1,2016-03-08T17:18:00Z,26.8015,-97.4706,1.43,1111122 
TCOON,ioos:station:TCOON:003:1,2016-03-08T18:24:00Z,26.8015,-97.4706,1.447,1111122 
TCOON,ioos:station:TCOON:003:1,2016-03-08T19:24:00Z,26.8015,-97.4706,1.458,1111122 
TCOON,ioos:station:TCOON:003:1,2016-03-08T20:24:00Z,26.8015,-97.4706,1.477,1111122 
TCOON,ioos:station:TCOON:003:1,2016-03-08T21:24:00Z,26.8015,-97.4706,1.494,1111122 
TCOON,ioos:station:TCOON:003:1,2016-03-08T22:18:00Z,26.8015,-97.4706,1.506,1111122 
TCOON,ioos:station:TCOON:003:1,2016-03-08T23:18:00Z,26.8015,-97.4706,1.516,1111122 
TCOON,ioos:station:TCOON:003:1,2016-03-09T00:18:00Z,26.8015,-97.4706,1.532,1111122 
TCOON,ioos:station:TCOON:003:1,2016-03-09T01:18:00Z,26.8015,-97.4706,1.536,1111122 
TCOON,ioos:station:TCOON:003:1,2016-03-09T02:18:00Z,26.8015,-97.4706,1.516,1111122 
TCOON,ioos:station:TCOON:003:1,2016-03-09T03:24:00Z,26.8015,-97.4706,1.485,1111122 
TCOON,ioos:station:TCOON:003:1,2016-03-09T04:36:00Z,26.8015,-97.4706,1.45,1111122 
TCOON,ioos:station:TCOON:003:1,2016-03-09T05:48:00Z,26.8015,-97.4706,1.441,1111122 
TCOON,ioos:station:TCOON:003:1,2016-03-09T06:30:00Z,26.8015,-97.4706,1.438,1111122 
TCOON,ioos:station:TCOON:003:1,2016-03-09T07:18:00Z,26.8015,-97.4706,1.432,1111122 
TCOON,ioos:station:TCOON:003:1,2016-03-09T08:18:00Z,26.8015,-97.4706,1.395,1111122 
TCOON,ioos:station:TCOON:003:1,2016-03-09T09:42:00Z,26.8015,-97.4706,1.394,1111122 
TCOON,ioos:station:TCOON:003:1,2016-03-09T10:18:00Z,26.8015,-97.4706,1.398,1111122 
TCOON,ioos:station:TCOON:003:1,2016-03-09T11:18:00Z,26.8015,-97.4706,1.394,1111122 
TCOON,ioos:station:TCOON:003:1,2016-03-09T12:18:00Z,26.8015,-97.4706,1.398,1111122 
TCOON,ioos:station:TCOON:003:1,2016-03-09T13:18:00Z,26.8015,-97.4706,1.412,1111122 
TCOON,ioos:station:TCOON:003:1,2016-03-09T14:18:00Z,26.8015,-97.4706,1.404,1111122 
TCOON,ioos:station:TCOON:003:1,2016-03-09T15:18:00Z,26.8015,-97.4706,1.39,1111122 
TCOON,ioos:station:TCOON:003:1,2016-03-09T16:24:00Z,26.8015,-97.4706,1.344,1111122 
TCOON,ioos:station:TCOON:003:1,2016-03-09T17:24:00Z,26.8015,-97.4706,1.335,1111122 
TCOON,ioos:station:TCOON:003:1,2016-03-09T18:24:00Z,26.8015,-97.4706,1.321,1111122 
TCOON,ioos:station:TCOON:003:1,2016-03-09T19:24:00Z,26.8015,-97.4706,1.252,1111122 
TCOON,ioos:station:TCOON:003:1,2016-03-09T20:24:00Z,26.8015,-97.4706,1.198,1111122 
TCOON,ioos:station:TCOON:003:1,2016-03-09T21:18:00Z,26.8015,-97.4706,1.168,1111122 
TCOON,ioos:station:TCOON:003:1,2016-03-09T22:24:00Z,26.8015,-97.4706,1.18,1111122 
TCOON,ioos:station:TCOON:003:1,2016-03-09T23:18:00Z,26.8015,-97.4706,1.197,1111122 
TCOON,ioos:station:TCOON:003:1,2016-03-10T00:18:00Z,26.8015,-97.4706,1.244,1111122 
TCOON,ioos:station:TCOON:003:1,2016-03-10T01:18:00Z,26.8015,-97.4706,1.244,1111122 
TCOON,ioos:station:TCOON:003:1,2016-03-10T02:18:00Z,26.8015,-97.4706,1.193,1111122 
TCOON,ioos:station:TCOON:003:1,2016-03-10T03:18:00Z,26.8015,-97.4706,1.174,1111122 
TCOON,ioos:station:TCOON:003:1,2016-03-10T04:18:00Z,26.8015,-97.4706,1.226,1111122 
TCOON,ioos:station:TCOON:003:1,2016-03-10T05:18:00Z,26.8015,-97.4706,1.241,1111122 
TCOON,ioos:station:TCOON:003:1,2016-03-10T06:24:00Z,26.8015,-97.4706,1.193,1111122 
TCOON,ioos:station:TCOON:003:1,2016-03-10T07:24:00Z,26.8015,-97.4706,1.17,1111122 
TCOON,ioos:station:TCOON:003:1,2016-03-10T08:24:00Z,26.8015,-97.4706,1.189,1111122 
TCOON,ioos:station:TCOON:003:1,2016-03-10T09:54:00Z,26.8015,-97.4706,1.303,1111122 
TCOON,ioos:station:TCOON:003:1,2016-03-10T10:24:00Z,26.8015,-97.4706,1.309,1111122 
TCOON,ioos:station:TCOON:003:1,2016-03-10T12:18:00Z,26.8015,-97.4706,1.302,1111122 
TCOON,ioos:station:TCOON:003:1,2016-03-10T13:18:00Z,26.8015,-97.4706,1.302,1111122 
TCOON,ioos:station:TCOON:003:1,2016-03-10T14:18:00Z,26.8015,-97.4706,1.322,1111122 
TCOON,ioos:station:TCOON:003:1,2016-03-10T15:18:00Z,26.8015,-97.4706,1.35,1111122 
TCOON,ioos:station:TCOON:003:1,2016-03-10T16:24:00Z,26.8015,-97.4706,1.334,1111122 
TCOON,ioos:station:TCOON:003:1,2016-03-10T17:18:00Z,26.8015,-97.4706,1.307,1111122 
TCOON,ioos:station:TCOON:003:1,2016-03-10T18:24:00Z,26.8015,-97.4706,1.303,1111122 
TCOON,ioos:station:TCOON:003:1,2016-03-10T19:24:00Z,26.8015,-97.4706,1.319,1111122 
TCOON,ioos:station:TCOON:003:1,2016-03-10T20:18:00Z,26.8015,-97.4706,1.346,1111122 
TCOON,ioos:station:TCOON:003:1,2016-03-10T21:18:00Z,26.8015,-97.4706,1.362,1111122 
TCOON,ioos:station:TCOON:003:1,2016-03-10T22:24:00Z,26.8015,-97.4706,1.374,1111122 
TCOON,ioos:station:TCOON:003:1,2016-03-10T23:24:00Z,26.8015,-97.4706,1.383,1111122 
TCOON,ioos:station:TCOON:003:1,2016-03-11T00:24:00Z,26.8015,-97.4706,1.443,1111122 
TCOON,ioos:station:TCOON:003:1,2016-03-11T01:24:00Z,26.8015,-97.4706,1.479,1111122 
TCOON,ioos:station:TCOON:003:1,2016-03-11T02:24:00Z,26.8015,-97.4706,1.499,1111122 
TCOON,ioos:station:TCOON:003:1,2016-03-11T03:18:00Z,26.8015,-97.4706,1.513,1111122 
TCOON,ioos:station:TCOON:003:1,2016-03-11T04:24:00Z,26.8015,-97.4706,1.51,1111122 
TCOON,ioos:station:TCOON:003:1,2016-03-11T05:24:00Z,26.8015,-97.4706,1.437,1111122 
TCOON,ioos:station:TCOON:003:1,2016-03-11T06:24:00Z,26.8015,-97.4706,1.364,1111122 
TCOON,ioos:station:TCOON:003:1,2016-03-11T07:24:00Z,26.8015,-97.4706,1.342,1111122 
TCOON,ioos:station:TCOON:003:1,2016-03-11T08:24:00Z,26.8015,-97.4706,1.353,1111122 
TCOON,ioos:station:TCOON:003:1,2016-03-11T09:42:00Z,26.8015,-97.4706,1.38,1111122 
TCOON,ioos:station:TCOON:003:1,2016-03-11T10:24:00Z,26.8015,-97.4706,1.384,1111122 
TCOON,ioos:station:TCOON:003:1,2016-03-11T11:24:00Z,26.8015,-97.4706,1.377,1111122 
TCOON,ioos:station:TCOON:003:1,2016-03-11T12:24:00Z,26.8015,-97.4706,1.373,1111122 
TCOON,ioos:station:TCOON:003:1,2016-03-11T13:24:00Z,26.8015,-97.4706,1.373,1111122 
TCOON,ioos:station:TCOON:003:1,2016-03-11T14:24:00Z,26.8015,-97.4706,1.37,1111122 
TCOON,ioos:station:TCOON:003:1,2016-03-11T15:18:00Z,26.8015,-97.4706,1.366,1111122 
TCOON,ioos:station:TCOON:003:1,2016-03-11T16:24:00Z,26.8015,-97.4706,1.383,1111122 
TCOON,ioos:station:TCOON:003:1,2016-03-11T17:30:00Z,26.8015,-97.4706,1.407,1111122 
TCOON,ioos:station:TCOON:003:1,2016-03-11T18:24:00Z,26.8015,-97.4706,1.426,1111122 
TCOON,ioos:station:TCOON:003:1,2016-03-11T19:24:00Z,26.8015,-97.4706,1.408,1111122 
TCOON,ioos:station:TCOON:003:1,2016-03-11T20:24:00Z,26.8015,-97.4706,1.367,1111122 
TCOON,ioos:station:TCOON:003:1,2016-03-11T21:24:00Z,26.8015,-97.4706,1.327,1111122 
TCOON,ioos:station:TCOON:003:1,2016-03-11T22:24:00Z,26.8015,-97.4706,1.3,1111122 
TCOON,ioos:station:TCOON:003:1,2016-03-11T23:18:00Z,26.8015,-97.4706,1.296,1111122 
TCOON,ioos:station:TCOON:003:1,2016-03-12T00:18:00Z,26.8015,-97.4706,1.308,1111122 
TCOON,ioos:station:TCOON:003:1,2016-03-12T01:18:00Z,26.8015,-97.4706,1.319,1111122 
TCOON,ioos:station:TCOON:003:1,2016-03-12T02:18:00Z,26.8015,-97.4706,1.325,1111122 
TCOON,ioos:station:TCOON:003:1,2016-03-12T03:24:00Z,26.8015,-97.4706,1.319,1111122 
TCOON,ioos:station:TCOON:003:1,2016-03-12T04:24:00Z,26.8015,-97.4706,1.318,1111122 
TCOON,ioos:station:TCOON:003:1,2016-03-12T07:00:00Z,26.8015,-97.4706,1.302,1111122 
TCOON,ioos:station:TCOON:003:1,2016-03-12T07:24:00Z,26.8015,-97.4706,1.295,1111122 
TCOON,ioos:station:TCOON:003:1,2016-03-12T08:24:00Z,26.8015,-97.4706,1.281,1111122 
TCOON,ioos:station:TCOON:003:1,2016-03-12T09:42:00Z,26.8015,-97.4706,1.268,1111122 
TCOON,ioos:station:TCOON:003:1,2016-03-12T10:24:00Z,26.8015,-97.4706,1.256,1111122 
TCOON,ioos:station:TCOON:003:1,2016-03-12T11:24:00Z,26.8015,-97.4706,1.249,1111122 
TCOON,ioos:station:TCOON:003:1,2016-03-12T12:24:00Z,26.8015,-97.4706,1.262,1111122 
TCOON,ioos:station:TCOON:003:1,2016-03-12T13:24:00Z,26.8015,-97.4706,1.27,1111122 
TCOON,ioos:station:TCOON:003:1,2016-03-12T14:24:00Z,26.8015,-97.4706,1.281,1111122 
TCOON,ioos:station:TCOON:003:1,2016-03-12T15:24:00Z,26.8015,-97.4706,1.294,1111122 
TCOON,ioos:station:TCOON:003:1,2016-03-12T16:24:00Z,26.8015,-97.4706,1.304,1111122 
TCOON,ioos:station:TCOON:003:1,2016-03-12T17:24:00Z,26.8015,-97.4706,1.312,1111122 
TCOON,ioos:station:TCOON:003:1,2016-03-12T18:24:00Z,26.8015,-97.4706,1.32,1111122 
TCOON,ioos:station:TCOON:003:1,2016-03-12T19:24:00Z,26.8015,-97.4706,1.325,1111122 
TCOON,ioos:station:TCOON:003:1,2016-03-12T20:24:00Z,26.8015,-97.4706,1.331,1111122 
TCOON,ioos:station:TCOON:003:1,2016-03-12T21:24:00Z,26.8015,-97.4706,1.347,1111122 
TCOON,ioos:station:TCOON:003:1,2016-03-12T22:24:00Z,26.8015,-97.4706,1.363,1111122 
TCOON,ioos:station:TCOON:003:1,2016-03-12T23:24:00Z,26.8015,-97.4706,1.377,1111122 
TCOON,ioos:station:TCOON:003:1,2016-03-13T00:24:00Z,26.8015,-97.4706,1.386,1111122 
TCOON,ioos:station:TCOON:003:1,2016-03-13T01:24:00Z,26.8015,-97.4706,1.405,1111122 
TCOON,ioos:station:TCOON:003:1,2016-03-13T02:24:00Z,26.8015,-97.4706,1.413,1111122 
TCOON,ioos:station:TCOON:003:1,2016-03-13T03:18:00Z,26.8015,-97.4706,1.414,1111122 
TCOON,ioos:station:TCOON:003:1,2016-03-13T04:24:00Z,26.8015,-97.4706,1.406,1111122 
TCOON,ioos:station:TCOON:003:1,2016-03-13T05:24:00Z,26.8015,-97.4706,1.389,1111122 
TCOON,ioos:station:TCOON:003:1,2016-03-13T06:24:00Z,26.8015,-97.4706,1.382,1111122 
TCOON,ioos:station:TCOON:003:1,2016-03-13T07:24:00Z,26.8015,-97.4706,1.403,1111122 
TCOON,ioos:station:TCOON:003:1,2016-03-13T08:24:00Z,26.8015,-97.4706,1.439,1111122 
TCOON,ioos:station:TCOON:003:1,2016-03-13T09:36:00Z,26.8015,-97.4706,1.453,1111122 
TCOON,ioos:station:TCOON:003:1,2016-03-13T10:24:00Z,26.8015,-97.4706,1.464,1111122 
TCOON,ioos:station:TCOON:003:1,2016-03-13T11:24:00Z,26.8015,-97.4706,1.473,1111122 
TCOON,ioos:station:TCOON:003:1,2016-03-13T12:24:00Z,26.8015,-97.4706,1.46,1111122 
TCOON,ioos:station:TCOON:003:1,2016-03-13T13:24:00Z,26.8015,-97.4706,1.441,1111122 
TCOON,ioos:station:TCOON:003:1,2016-03-13T14:24:00Z,26.8015,-97.4706,1.427,1111122 
TCOON,ioos:station:TCOON:003:1,2016-03-13T15:24:00Z,26.8015,-97.4706,1.421,1111122 
TCOON,ioos:station:TCOON:003:1,2016-03-13T16:24:00Z,26.8015,-97.4706,1.42,1111122 